Orbital Elements
Epoch 2024 Mar. 31.0 TT = JDT 2460400.5
T 2024 Feb. 4.22671 TT Rudenko
q 1.7995632 (2000.0) P Q
n 0.11787047 Peri. 128.56476 -0.47386371 -0.87981224
a 4.1197042 Node 349.52515 +0.73085412 -0.36936992
e 0.5631814 Incl. 11.80599 +0.49122850 -0.29915929
P 8.36
>From 174 observations 2007 Nov. 17-2024 Mar. 28, mean residual 0".7.
Nongravitational parameters A1 = +0.43, A2 = -0.0174.
|